SCP
0 0 0 0 0 0 0 0 0 0 0 0 0 0 0 0 0 0 0 0 0 0 0 0 0 0 0 0 0 0 0 0 0 0 0 0 0 0 0 0 0 0 0
0 0 0 0 0 0 0 0 0 0 0 0 0 0 0 0 0 0 0 0 0 0 0 0 0 0 0 0 0 0 0 0 0 0 0 0 0 0 0 0 0 0 0
0 0 0 0 0 0 0 0 0 0 0 0 0 0 0 0 0 0 0 0 0 0 0 0 0 0 0 0 0 0 0 0 0 0 0 0 0 0 0 0 0 0 0
0 0 0 0 0 0 0 0 0 0 0 0 0 0 0 0 0 0 0 0 0 0 0 0 0 0 0 0 0 0 0 0 0 0 0 0 0 0 0 0 0 0 0
0 0 0 0 1 1 0 0 0 0 0 0 0 0 0 0 0 0 0 0 0 0 0 0 0 0 0 0 0 0 0 0 0 0 0 0 0 0 0 0 0 0 0
0 0 0 0 1 1 1 0 0 0 0 0 0 0 0 0 0 0 0 0 0 0 0 0 0 0 0 0 0 0 0 0 0 0 0 0 0 0 0 0 0 0 0
0 0 0 0 0 1 1 0 0 0 0 0 0 0 0 0 0 0 0 0 0 0 0 0 0 0 0 0 0 0 0 0 0 0 0 0 0 0 0 0 0 0 0
0 0 0 0 0 0 0 0 0 0 0 0 0 0 0 0 0 0 0 0 0 0 0 0 0 0 0 0 0 0 0 0 0 0 0 0 0 0 0 0 0 0 0
0 0 0 0 0 0 0 0 0 0 0 0 0 0 0 0 0 0 0 0 0 0 0 0 0 0 0 0 0 0 0 0 0 0 0 0 0 0 0 0 0 0 0
0 0 0 0 0 0 0 0 0 0 0 0 0 0 0 0 0 0 0 0 0 0 0 0 0 0 0 0 0 0 0 0 0 0 0 0 0 0 0 0 0 0 0
0 0 0 0 0 0 0 0 0 0 0 0 0 0 0 0 0 0 0 0 0 0 0 0 0 0 0 0 0 0 0 0 0 0 0 0 0 0 0 0 0 0 0
0 0 0 0 0 0 0 0 0 0 0 0 0 0 0 0 0 0 0 0 0 0 0 0 0 0 0 0 0 0 0 0 0 0 0 0 0 0 0 0 0 0 0
0 0 0 0 0 0 0 0 0 0 0 0 0 0 0 0 0 0 0 0 0 0 0 0 0 0 0 0 0 0 0 0 0 0 0 0 0 0 0 0 0 0 0
0 0 0 0 0 0 0 0 0 0 0 0 0 0 0 0 0 0 0 0 0 0 0 0 0 0 0 0 0 0 0 0 0 0 0 0 0 0 0 0 0 0 0
0 0 0 0 0 0 0 0 0 0 0 0 0 0 0 0 0 0 0 0 0 0 0 0 0 0 0 0 0 0 0 0 0 0 0 0 0 0 0 0 0 0 0
0 0 0 0 0 0 0 0 0 0 0 0 0 0 0 0 0 0 0 0 0 0 0 0 0 0 0 0 0 0 0 0 0 0 0 0 0 0 0 0 0 0 0
0 0 0 0 0 0 0 0 0 0 0 0 0 0 0 0 0 0 0 0 0 0 0 0 0 0 0 0 0 0 0 0 0 0 0 0 0 0 0 0 0 0 0
0 0 0 0 0 0 0 0 0 0 0 0 0 0 0 0 0 0 0 0 0 0 0 0 0 0 0 0 0 0 0 0 0 0 0 0 0 0 0 0 0 0 0
0 0 0 0 0 0 0 0 0 0 0 0 0 0 0 0 0 0 0 0 0 0 0 0 0 0 0 0 0 0 0 0 0 0 0 0 0 0 0 0 0 0 0
0 0 0 0 0 0 0 0 0 0 0 0 0 0 0 0 0 0 0 0 0 0 0 0 0 0 0 0 0 0 0 0 0 0 0 0 0 0 0 0 0 0 0
0 0 0 0 0 0 0 0 0 0 0 0 0 0 0 0 0 0 0 0 0 0 0 0 0 0 0 0 0 0 0 0 0 0 0 0 0 0 0 0 0 0 0
0 0 0 0 0 0 0 0 0 0 0 0 0 0 0 0 0 0 0 0 0 0 0 0 0 0 0 0 0 0 0 0 0 0 0 0 0 0 0 0 0 0 0
0 0 0 0 0 0 0 0 0 0 0 0 0 0 0 0 0 0 0 0 0 0 0 0 0 0 0 0 0 0 0 0 0 0 0 0 0 0 0 0 0 0 0
0 0 0 0 0 0 0 0 0 0 0 0 0 0 0 0 0 0 0 0 0 0 0 0 0 0 0 0 0 0 0 0 0 -0 -0 -0 0 0 0 0 0 0 0
0 0 0 0 0 0 0 0 0 0 0 0 0 0 0 0 0 0 0 0 0 0 0 0 0 0 0 0 0 0 0 0 0 0 -0 -0 0 0 0 0 0 0 0
0 0 0 0 0 0 0 0 0 0 0 0 0 0 0 0 0 0 0 0 0 0 0 0 0 0 0 0 0 0 0 0 0 0 -0 -0 0 0 0 0 0 0 0
Wind_Speed
5 6 5 6 7 7 7 8 8 8 8 8 9 9 9 10 11 11 11 11 11 12 12 12 13 13 13 12 12 12 12 13 13 13 14 13 13 14 14 13 12 9 14
5 7 6 6 7 7 8 8 8 8 8 8 8 9 9 10 10 11 11 11 12 12 12 12 13 13 13 13 12 12 12 12 12 12 12 11 12 13 14 13 12 9 14
6 7 6 6 7 8 8 8 8 8 8 8 8 9 9 10 10 10 11 11 11 12 12 12 13 13 14 13 13 12 12 12 11 10 10 7 9 13 14 13 13 13 13
5 6 6 7 8 8 8 8 8 8 8 8 8 9 9 9 9 10 10 11 11 12 12 12 13 13 13 13 13 13 12 11 10 9 7 7 7 12 14 13 13 13 13
5 6 6 7 8 8 8 8 7 8 8 8 8 8 9 9 9 9 10 10 11 11 11 12 12 12 12 12 12 12 11 10 9 8 7 7 6 11 13 13 13 13 13
6 6 6 7 7 8 8 8 8 8 8 8 8 8 8 8 9 9 9 10 10 10 11 11 11 12 12 12 11 10 9 8 6 6 7 7 6 11 13 12 12 12 12
5 6 6 7 7 8 8 8 8 8 8 8 8 8 8 8 8 8 8 9 9 10 10 10 10 11 11 11 11 10 8 7 5 6 6 6 7 11 12 12 12 12 12
5 5 5 6 6 7 7 8 8 8 8 8 8 7 8 8 9 8 8 8 9 9 9 9 9 10 10 11 10 9 8 6 6 6 6 6 8 11 12 12 11 11 12
5 5 4 3 4 5 6 7 7 7 7 8 8 8 8 8 8 9 9 8 8 8 8 9 9 9 10 10 9 8 8 7 5 4 6 5 8 11 11 11 11 11 11
4 4 4 3 3 3 3 6 6 7 7 7 7 7 8 7 7 8 8 8 7 7 8 8 8 9 9 9 8 7 7 5 5 5 4 5 8 10 10 10 10 10 10
4 3 3 3 3 2 2 4 5 5 6 6 5 6 5 3 3 4 6 7 8 7 7 8 7 8 7 7 7 6 5 3 4 4 4 7 8 9 9 9 9 9 9
2 2 2 2 3 2 2 2 2 2 3 3 3 3 2 3 3 4 6 7 7 7 6 7 7 6 4 2 3 4 2 4 4 3 4 8 8 8 8 8 8 8 8
2 2 2 2 2 2 2 2 1 1 2 2 3 3 2 2 2 3 2 3 3 4 3 3 3 2 2 2 2 2 3 3 3 3 4 7 7 7 7 7 7 7 7
2 2 2 2 2 2 2 2 2 2 1 2 2 3 2 1 1 1 2 2 2 1 2 2 1 2 3 3 3 3 3 3 3 3 3 6 6 6 6 6 6 6 6
2 3 2 2 2 2 2 2 2 2 2 2 2 2 2 2 1 1 2 2 2 2 1 2 2 2 3 3 3 3 3 4 4 3 3 5 5 5 5 5 5 5 5
2 3 2 2 2 2 2 2 2 2 2 2 2 2 2 2 2 2 2 2 2 1 1 1 2 2 2 2 3 3 3 3 3 3 3 3 5 5 4 4 5 5 4
2 3 2 2 2 2 2 2 2 1 2 2 2 2 2 2 2 2 1 1 1 1 1 1 2 2 2 3 3 3 3 3 3 3 2 2 2 4 5 5 4 4 4
2 3 2 2 2 2 2 1 1 1 2 2 2 2 2 2 2 2 2 1 1 1 1 1 2 2 2 2 2 2 2 2 3 2 2 2 2 2 3 5 5 4 4
3 3 3 2 2 2 2 2 2 2 2 2 2 2 2 2 2 2 2 2 2 1 1 1 2 2 1 2 2 2 2 2 2 2 2 2 2 1 2 3 5 4 4
2 3 3 3 2 2 2 2 2 2 2 2 2 2 2 1 2 1 2 2 2 1 2 2 2 2 1 1 2 2 2 1 1 2 2 2 2 2 2 2 2 2 4
2 2 2 3 2 2 1 2 2 1 1 1 2 2 2 2 1 1 2 2 1 1 1 1 1 2 2 1 2 2 2 1 1 1 1 1 1 2 1 1 1 1 1
2 1 2 2 2 2 2 1 1 2 1 1 1 2 2 2 1 1 1 1 1 1 1 2 2 1 1 1 1 1 1 2 2 1 1 0 1 1 1 2 1 1 1
2 2 1 1 1 2 2 1 2 2 1 1 1 1 1 1 1 1 1 1 1 1 1 1 1 1 1 1 0 1 1 1 2 1 1 0 1 1 0 1 1 1 1
2 2 1 1 1 1 1 2 3 2 2 2 2 1 1 1 1 1 2 1 1 1 1 1 1 1 2 1 1 1 0 1 1 2 2 1 0 1 1 0 1 0 0
2 2 2 2 1 1 1 1 2 2 1 1 1 1 2 1 1 1 1 2 1 1 1 1 1 1 1 2 1 0 1 1 0 1 2 2 2 2 2 2 2 1 1
2 2 2 2 1 1 1 1 1 1 2 2 2 1 1 1 1 1 1 1 1 1 1 1 1 2 2 2 1 1 1 1 1 1 2 2 2 2 3 2 2 2 2
Wind_Direction
91 101 88 83 87 87 82 76 72 70 71 73 74 71 72 74 73 72 73 70 68 68 68 67 63 62 67 68 71 77 81 82 81 81 80 78 81 82 80 77 76 76 78
100 107 93 88 91 90 85 78 73 71 73 75 76 75 76 79 75 73 73 70 70 70 69 68 65 63 65 69 74 78 82 83 81 80 81 75 77 79 78 75 76 83 83
92 105 101 86 93 90 85 80 76 74 76 77 78 80 81 81 78 75 74 71 71 72 72 71 69 66 66 66 73 80 83 83 78 77 83 78 77 79 81 80 81 84 85
91 102 103 88 91 88 86 82 79 78 78 79 79 80 83 82 80 78 76 73 71 72 73 71 70 69 68 67 70 76 79 79 75 77 78 76 76 81 82 82 83 84 85
86 92 94 90 90 88 86 85 84 83 80 79 81 81 83 83 81 79 76 74 72 72 72 71 69 69 68 68 69 74 74 72 69 72 73 72 71 82 84 83 83 85 86
83 87 88 89 89 87 85 84 88 89 85 82 82 82 82 83 83 80 77 75 74 73 72 72 71 70 69 68 69 69 66 59 63 68 73 74 72 83 86 85 85 84 86
76 84 96 84 87 89 86 83 86 88 87 84 84 84 84 83 83 80 78 78 77 76 74 74 73 71 70 69 68 63 55 50 64 67 71 71 75 85 88 86 85 85 84
71 82 98 87 81 82 86 85 85 85 83 80 79 83 85 85 80 76 76 78 79 78 77 76 75 73 71 69 64 56 45 47 66 71 74 72 79 86 88 86 84 84 84
60 62 78 89 83 78 79 81 83 81 80 80 77 73 75 76 78 76 69 69 75 78 78 76 74 75 73 69 62 52 42 41 57 67 80 76 83 87 86 85 85 85 84
62 54 54 73 74 71 76 76 79 78 74 74 74 72 72 69 70 73 69 62 69 77 77 76 74 74 73 67 57 45 36 36 58 63 70 79 86 89 87 86 86 86 85
60 48 48 52 60 67 79 79 79 80 72 71 67 64 72 72 69 72 67 65 59 68 75 72 72 72 70 63 54 42 32 35 56 64 66 81 89 91 90 87 86 85 86
81 56 44 47 52 58 75 87 82 89 83 75 72 62 61 64 65 70 68 63 62 57 63 65 65 69 63 60 50 46 33 42 50 63 67 82 92 94 91 88 85 86 87
126 95 57 48 54 57 62 79 72 73 78 76 68 58 59 64 62 67 73 59 56 53 49 52 54 48 46 50 52 50 45 45 48 57 64 78 86 93 95 95 91 88 85
125 111 82 61 61 62 65 66 76 73 75 72 57 61 63 65 59 66 80 64 57 41 32 33 33 35 43 43 47 53 51 47 48 59 57 62 71 86 97 99 95 91 87
128 115 94 72 66 65 72 73 74 76 79 82 65 52 54 63 57 58 74 74 63 52 43 33 35 33 41 40 47 51 48 52 50 53 53 55 64 72 89 99 99 95 90
133 124 104 81 71 76 71 78 87 79 82 86 75 54 54 60 55 56 67 72 62 57 46 42 46 47 40 39 43 45 43 50 54 56 58 45 52 60 73 91 96 90 87
148 133 126 121 91 90 88 81 84 82 82 81 77 67 55 53 50 54 68 76 65 68 59 55 57 59 49 45 39 31 36 42 47 49 55 48 42 51 58 80 83 87 83
142 134 128 125 115 104 101 96 89 89 92 82 82 78 61 55 51 62 63 62 52 66 72 74 70 67 55 48 35 21 25 30 33 39 52 52 42 49 46 55 67 70 73
141 137 138 132 136 141 129 123 107 101 94 92 88 80 70 56 53 66 68 52 54 62 65 66 72 73 68 51 38 29 25 32 27 34 37 43 38 62 71 50 55 55 60
134 138 146 146 138 147 145 132 117 97 100 103 96 81 83 66 52 72 87 73 64 72 64 64 78 68 77 74 50 34 14 15 29 41 27 27 27 36 66 69 63 47 48
135 133 144 148 143 134 146 151 145 144 126 112 108 93 94 84 59 76 74 92 81 89 98 90 88 90 62 52 56 23 354 14 41 18 28 48 38 22 47 56 65 57 37
125 141 155 157 156 154 164 172 158 147 153 132 113 114 111 113 105 93 86 100 106 96 92 87 88 82 58 68 80 49 342 335 344 345 1 75 51 29 67 46 46 62 58
149 168 172 180 165 161 159 148 129 114 103 106 116 125 121 125 125 127 131 130 132 126 135 129 125 108 146 268 80 127 143 240 309 299 303 3 37 15 77 100 71 24 74
156 147 150 146 116 122 140 158 159 157 159 176 170 168 166 143 140 157 156 152 142 132 139 165 151 154 146 193 292 326 222 161 198 294 292 287 298 274 234 229 216 207 183
138 141 151 133 104 84 105 162 173 169 159 135 130 153 163 161 154 171 165 159 162 174 183 192 186 181 172 181 181 245 295 310 258 211 266 281 286 269 234 213 204 206 195
108 125 125 124 112 98 104 87 170 177 156 149 152 182 180 175 170 167 158 164 176 187 198 207 206 204 205 197 189 180 183 202 233 227 246 267 268 264 261 226 205 200 196